Location: Basel
(47.5670°N, 7.6000°E)
Time: 00:11:24
(UTC+02:00)

ISS - Visible Passes

Search period start: 30 June 2022 00:00
Search period end: 10 July 2022 00:00
Orbit: 414 x 420 km, 51.6° (Epoch: 29 June)

Date Brightness Start Highest point End Pass type
(mag) Time Alt. Az. Time Alt. Az. Time Alt. Az.
30 Jun -2.9 04:08:38 18° SSW 04:10:44 38° SE 04:13:54 10° ENE visible
01 Jul -2.4 03:22:08 23° SSE 03:22:42 25° SE 03:25:30 10° E visible
01 Jul -3.5 04:55:52 10° WSW 04:59:13 72° NNW 05:02:36 10° ENE visible
02 Jul -1.5 02:35:34 15° ESE 02:35:34 15° ESE 02:36:51 10° E visible
02 Jul -3.8 04:08:27 16° WSW 04:11:01 82° SSE 04:14:24 10° ENE visible
03 Jul -3.6 03:21:49 37° SSW 03:22:50 55° SSE 03:26:10 10° ENE visible
03 Jul -2.8 04:56:25 10° W 04:59:41 46° NNW 05:02:58 10° ENE visible
04 Jul -2.8 02:35:08 34° SE 02:35:08 34° SE 02:37:49 10° ENE visible
04 Jul -3.2 04:08:03 10° W 04:11:23 56° NNW 04:14:43 10° ENE visible
05 Jul -1.5 01:48:23 16° E 01:48:23 16° E 01:49:21 10° E visible
05 Jul -3.6 03:21:16 25° WSW 03:23:06 74° NNW 03:26:29 10° ENE visible
05 Jul -2.4 04:56:57 10° WNW 05:00:09 39° N 05:03:22 10° ENE visible
06 Jul -3.9 02:34:27 66° SW 02:34:49 79° SSE 02:38:12 10° ENE visible
06 Jul -2.5 04:08:34 10° W 04:11:47 41° N 04:15:01 10° ENE visible
07 Jul -2.8 01:47:34 37° E 01:47:34 37° E 01:49:53 10° ENE visible
07 Jul -2.8 03:20:26 12° W 03:23:25 47° NNW 03:26:41 10° ENE visible
07 Jul -2.4 04:57:20 10° WNW 05:00:34 42° N 05:03:48 10° E visible
08 Jul -1.6 01:00:35 16° E 01:00:35 16° E 01:01:28 10° ENE visible
08 Jul -3.2 02:33:26 27° W 02:35:02 58° NNW 02:38:23 10° ENE visible
08 Jul -2.3 04:08:58 10° WNW 04:12:10 39° N 04:15:22 10° ENE visible
09 Jul -3.7 01:46:19 65° W 01:46:41 77° NNW 01:50:04 10° ENE visible
09 Jul -2.3 03:20:33 10° WNW 03:23:44 39° N 03:26:56 10° ENE visible
09 Jul -3.1 04:57:30 10° WNW 05:00:51 60° NNE 05:04:11 10° E visible
